Weather History for Grafton, ND

Change the Weather History Date:

Tuesday, January 1, 2013

  Actual Average Record
Temperature  
Mean Temperature 3 °F -  
Max Temperature 19 °F 12 °F 39 °F (1954)
Min Temperature -11 °F -4 °F -33 °F (1974)
Degree Days  
Heating Degree Days 62    
Moisture  
Dew Point 3 °F    
Average Humidity 84    
Maximum Humidity 100    
Minimum Humidity 77    
Precipitation  
Precipitation 0.00 in - - ()
Sea Level Pressure  
Sea Level Pressure 29.99 in    
Wind  
Wind Speed 10 mph (SSW)    
Max Wind Speed 15 mph    
Max Gust Speed -    
Visibility 8 miles    
Events Snow    
Averages and records for this station are not official NWS values.
T = Trace of Precipitation, MM = Missing Value Source: NWS Daily Summary

Daily Weather History Graph

Daily Weather History Graph

Search for Another Location

Airport:

Trip Planner

Search our weather history database for the weather conditions in past years. The results will help you decide how hot, cold, wet, or windy it might be!

Date:

Astronomy

Jan. 01, 2013 Rise Set
Actual Time 8:21 AM CST 4:45 PM CST
Civil Twilight 7:44 AM CST 5:22 PM CST
Nautical Twilight 7:04 AM CST 6:02 PM CST
Astronomical Twilight 6:26 AM CST 6:40 PM CST
Moon 9:41 PM CST (1/1) 10:12 AM CST (1/1)
Length of Visible Light 9h 37m
Length of Day
8h 24m
Waning Gibbous, 83% of the Moon is Illuminated
Jan 1
Waning Gibbous
Jan 4
Last Quarter
Jan 11
New
Jan 18
First Quarter
Jan 26
Full

Hourly Weather History & Observations

Time (CST) Temp. Windchill Dew Point Humidity Pressure Visibility Wind Dir Wind Speed Gust Speed Precip Events Conditions
12:15 AM -9.4 °F -27.9 °F -13.0 °F 84% 30.21 in 10.0 mi SSW 10.4 mph - N/A   Clear
12:35 AM -9.4 °F -24.3 °F -13.0 °F 84% 30.20 in 10.0 mi SSW 6.9 mph - N/A   Clear
12:55 AM -9.4 °F -24.3 °F -13.0 °F 84% 30.21 in 10.0 mi SSW 6.9 mph - N/A   Clear
1:15 AM -11.2 °F -27.8 °F -16.6 °F 77% 30.19 in 10.0 mi South 8.1 mph - N/A   Clear
1:35 AM -9.4 °F -22.7 °F -14.8 °F 77% 30.19 in 10.0 mi South 5.8 mph - N/A   Clear
1:55 AM -9.4 °F -26.8 °F -14.8 °F 77% 30.18 in 10.0 mi SSW 9.2 mph - N/A   Clear
2:15 AM -9.4 °F -27.9 °F -13.0 °F 84% 30.18 in 10.0 mi South 10.4 mph - N/A   Clear
2:35 AM -9.4 °F -24.3 °F -13.0 °F 84% 30.18 in 10.0 mi South 6.9 mph - N/A   Clear
3:15 AM -11.2 °F -26.4 °F -16.6 °F 77% 30.18 in 10.0 mi SSW 6.9 mph - N/A   Clear
3:35 AM -11.2 °F -26.4 °F -16.6 °F 77% 30.17 in 10.0 mi South 6.9 mph - N/A   Scattered Clouds
4:15 AM -9.4 °F -25.6 °F -13.0 °F 84% 30.16 in 10.0 mi South 8.1 mph - N/A   Overcast
4:35 AM -4.0 °F -20.2 °F -9.4 °F 78% 30.15 in 10.0 mi South 9.2 mph - N/A   Overcast
4:55 AM -4.0 °F -17.8 °F -9.4 °F 78% 30.15 in 10.0 mi South 6.9 mph - N/A   Overcast
5:15 AM -2.2 °F -18.0 °F -7.6 °F 78% 30.15 in 10.0 mi South 9.2 mph - N/A   Overcast
5:35 AM -2.2 °F -18.0 °F -5.8 °F 85% 30.14 in 10.0 mi South 9.2 mph - N/A   Overcast
6:15 AM -0.4 °F -16.7 °F -4.0 °F 85% 30.12 in 10.0 mi South 10.4 mph - N/A   Overcast
6:35 AM -0.4 °F -16.7 °F -4.0 °F 85% 30.11 in 10.0 mi South 10.4 mph - N/A   Overcast
6:55 AM -0.4 °F -17.6 °F -2.2 °F 92% 30.11 in 10.0 mi SSW 11.5 mph - N/A   Overcast
7:15 AM 1.4 °F -16.1 °F -0.4 °F 92% 30.09 in 10.0 mi SSW 12.7 mph - N/A   Overcast
7:35 AM 1.4 °F -15.3 °F -0.4 °F 92% 30.09 in 10.0 mi SSW 11.5 mph - N/A   Overcast
7:55 AM 3.2 °F -13.9 °F -0.4 °F 85% 30.08 in 10.0 mi SSW 12.7 mph - N/A   Overcast
8:15 AM 3.2 °F -13.9 °F -0.4 °F 85% 30.08 in 10.0 mi South 12.7 mph - N/A   Overcast
8:35 AM 1.4 °F -13.5 °F -0.4 °F 92% 30.07 in 10.0 mi South 9.2 mph - N/A   Partly Cloudy
8:55 AM 1.4 °F -14.5 °F -2.2 °F 85% 30.07 in 10.0 mi South 10.4 mph - N/A   Clear
9:15 AM 1.4 °F -14.5 °F -2.2 °F 85% 30.07 in 10.0 mi South 10.4 mph - N/A   Clear
9:35 AM 1.4 °F -14.5 °F -0.4 °F 92% 30.06 in 9.0 mi SSW 10.4 mph - N/A   Clear
9:55 AM 3.2 °F -13.1 °F -0.4 °F 85% 30.06 in 9.0 mi South 11.5 mph - N/A   Clear
10:15 AM 3.2 °F -13.1 °F -0.4 °F 85% 30.06 in 9.0 mi South 11.5 mph - N/A   Clear
10:35 AM 3.2 °F -13.9 °F -0.4 °F 85% 30.05 in 9.0 mi South 12.7 mph - N/A   Clear
11:15 AM 5.0 °F -12.3 °F 1.4 °F 85% 30.03 in 7.0 mi South 13.8 mph - N/A   Clear
11:35 AM 6.8 °F -10.0 °F 3.2 °F 85% 30.02 in 7.0 mi South 13.8 mph - N/A   Clear
11:55 AM 8.6 °F -7.7 °F 5.0 °F 85% 30.01 in 7.0 mi South 13.8 mph - N/A   Clear
12:15 PM 8.6 °F -7.7 °F 5.0 °F 85% 30.00 in 7.0 mi South 13.8 mph - N/A   Clear
12:35 PM 10.4 °F -6.0 °F 6.8 °F 85% 29.98 in 8.0 mi South 15.0 mph - N/A   Clear
1:15 PM 12.2 °F -3.1 °F 6.8 °F 79% 29.96 in 7.0 mi South 13.8 mph - N/A   Clear
1:35 PM 14.0 °F -1.4 °F 8.6 °F 79% 29.96 in 8.0 mi South 15.0 mph - N/A   Clear
1:55 PM 14.0 °F 0.5 °F 8.6 °F 79% 29.95 in 8.0 mi SSW 11.5 mph - N/A   Clear
2:15 PM 14.0 °F -0.8 °F 10.4 °F 86% 29.94 in 8.0 mi SW 13.8 mph - N/A   Clear
2:35 PM 15.8 °F 3.4 °F 10.4 °F 79% 29.93 in 7.0 mi SSW 10.4 mph - N/A   Clear
2:55 PM 15.8 °F 2.1 °F 10.4 °F 79% 29.92 in 10.0 mi SSW 12.7 mph - N/A   Clear
3:15 PM 15.8 °F 1.4 °F 10.4 °F 79% 29.92 in 9.0 mi SW 13.8 mph - N/A   Clear
3:35 PM 15.8 °F 3.4 °F 10.4 °F 79% 29.92 in 9.0 mi SW 10.4 mph - N/A   Clear
3:55 PM 15.8 °F 2.1 °F 10.4 °F 79% 29.91 in 10.0 mi SW 12.7 mph - N/A   Clear
4:15 PM 15.8 °F 3.4 °F 10.4 °F 79% 29.91 in 10.0 mi SSW 10.4 mph - N/A   Clear
4:35 PM 15.8 °F 2.7 °F 10.4 °F 79% 29.90 in 10.0 mi SSW 11.5 mph - N/A   Clear
4:55 PM 15.8 °F 3.4 °F 10.4 °F 79% 29.90 in 10.0 mi SSW 10.4 mph - N/A   Clear
5:15 PM 15.8 °F 2.1 °F 10.4 °F 79% 29.89 in 10.0 mi SSW 12.7 mph - N/A   Clear
5:35 PM 15.8 °F 5.1 °F 10.4 °F 79% 29.90 in 10.0 mi SSW 8.1 mph - N/A   Clear
5:55 PM 14.0 °F 2.0 °F 10.4 °F 86% 29.90 in 10.0 mi SW 9.2 mph - N/A   Clear
6:15 PM 14.0 °F 1.2 °F 8.6 °F 79% 29.88 in 10.0 mi SSW 10.4 mph - N/A   Clear
6:35 PM 14.0 °F 0.5 °F 10.4 °F 86% 29.87 in 10.0 mi SSW 11.5 mph - N/A   Clear
6:55 PM 15.8 °F 4.2 °F 10.4 °F 79% 29.88 in 10.0 mi SSW 9.2 mph - N/A   Clear
7:15 PM 15.8 °F 3.4 °F 10.4 °F 79% 29.87 in 10.0 mi SSW 10.4 mph - N/A   Clear
7:35 PM 15.8 °F 3.4 °F 10.4 °F 79% 29.86 in 10.0 mi SSW 10.4 mph - N/A   Clear
7:55 PM 15.8 °F 4.2 °F 10.4 °F 79% 29.85 in 10.0 mi South 9.2 mph - N/A   Partly Cloudy
8:15 PM 15.8 °F 4.2 °F 10.4 °F 79% 29.85 in 5.0 mi South 9.2 mph - N/A   Mostly Cloudy
8:35 PM 15.8 °F 3.4 °F 12.2 °F 86% 29.84 in 2.5 mi South 10.4 mph - N/A Snow Light Snow
8:55 PM 15.8 °F 3.4 °F 14.0 °F 93% 29.83 in 2.0 mi South 10.4 mph - N/A Snow Light Snow
9:15 PM 15.8 °F 3.4 °F 14.0 °F 93% 29.82 in 3.0 mi South 10.4 mph - N/A Snow Light Snow
9:35 PM 15.8 °F 3.4 °F 14.0 °F 93% 29.82 in 4.0 mi South 10.4 mph - N/A   Overcast
9:55 PM 15.8 °F 4.2 °F 14.0 °F 93% 29.82 in 7.0 mi South 9.2 mph - N/A   Mostly Cloudy
10:15 PM 15.8 °F 4.2 °F 14.0 °F 93% 29.81 in 5.0 mi South 9.2 mph - N/A Snow Light Snow
10:35 PM 17.6 °F 6.4 °F 15.8 °F 93% 29.80 in 3.0 mi South 9.2 mph - N/A Snow Light Snow
10:55 PM 17.6 °F 6.4 °F 15.8 °F 93% 29.80 in 2.5 mi South 9.2 mph - N/A Snow Light Snow
11:15 PM 17.6 °F 7.3 °F 15.8 °F 93% 29.80 in 5.0 mi South 8.1 mph - N/A   Overcast
11:35 PM 17.6 °F 6.4 °F 17.6 °F 100% 29.80 in 6.0 mi South 9.2 mph - N/A   Overcast
11:55 PM 19.4 °F 8.6 °F 17.6 °F 93% 29.80 in 9.0 mi South 9.2 mph - N/A   Overcast